Location: Grange Verzio
(44.5000°N, 6.9833°E)
Time: 00:35:19
(UTC+00:00)

Cosmos 540 Rocket - Pass Details

Date: 01 February 2023
Orbit: 740 x 751 km, 74.1° (Epoch: 24 March)

Event Time Altitude Azimuth Distance (km) Brightness Sun altitude
Rises 18:17:36 0° 341° (NNW) 3,207 6.9 -17.5°
Reaches altitude 10° 18:20:00 10° 345° (NNW) 2,277 6.0 -17.9°
Maximum altitude 18:25:07 63° 66° (ENE) 833 3.4 -18.8°
Enters shadow 18:29:37 13° 147° (SSE) 2,038 5.4 -19.6°
